Year,Month,Day,Hour,Minute,Value (Times are PST for windgust in km/hr)
2011,09,26,00,14,1.60
2011,09,26,00,18,1.60
2011,09,26,00,23,1.60
2011,09,26,00,24,3.20
2011,09,26,00,25,3.20
2011,09,26,00,26,1.60
2011,09,26,00,27,1.60
2011,09,26,00,28,1.60
2011,09,26,00,29,1.60
2011,09,26,00,30,1.60
2011,09,26,00,31,1.60
2011,09,26,00,34,1.60
2011,09,26,00,35,1.60
2011,09,26,00,37,1.60
2011,09,26,00,47,1.60
2011,09,26,00,48,1.60
2011,09,26,00,49,3.20
2011,09,26,00,50,3.20
2011,09,26,00,51,1.60
2011,09,26,00,52,3.20
2011,09,26,00,53,1.60
2011,09,26,00,54,1.60
2011,09,26,00,55,1.60
2011,09,26,01,51,1.60
2011,09,26,01,52,1.60
2011,09,26,01,53,3.20
2011,09,26,01,54,3.20
2011,09,26,01,55,1.60
2011,09,26,01,56,1.60
2011,09,26,01,59,1.60
2011,09,26,02,02,1.60
2011,09,26,02,03,4.80
2011,09,26,02,04,4.80
2011,09,26,02,05,1.60
2011,09,26,02,06,1.60
2011,09,26,02,07,1.60
2011,09,26,02,08,1.60
2011,09,26,02,09,1.60
2011,09,26,02,10,3.20
2011,09,26,02,11,4.80
2011,09,26,02,12,4.80
2011,09,26,02,13,1.60
2011,09,26,02,14,1.60
2011,09,26,02,16,3.20
2011,09,26,02,17,1.60
2011,09,26,02,18,1.60
2011,09,26,02,19,3.20
2011,09,26,02,20,6.40
2011,09,26,02,21,3.20
2011,09,26,02,22,6.40
2011,09,26,02,23,6.40
2011,09,26,02,25,1.60
2011,09,26,02,27,4.80
2011,09,26,02,28,3.20
2011,09,26,02,29,3.20
2011,09,26,02,30,1.60
2011,09,26,02,31,1.60
2011,09,26,02,32,3.20
2011,09,26,02,33,4.80
2011,09,26,02,34,4.80
2011,09,26,02,35,4.80
2011,09,26,02,36,3.20
2011,09,26,02,38,1.60
2011,09,26,02,39,3.20
2011,09,26,02,40,1.60
2011,09,26,02,41,3.20
2011,09,26,02,42,3.20
2011,09,26,02,43,3.20
2011,09,26,02,44,4.80
2011,09,26,02,45,3.20
2011,09,26,02,46,1.60
2011,09,26,02,47,1.60
2011,09,26,02,48,1.60
2011,09,26,02,53,1.60
2011,09,26,02,54,3.20
2011,09,26,02,55,3.20
2011,09,26,02,56,3.20
2011,09,26,02,57,3.20
2011,09,26,02,58,1.60
2011,09,26,02,59,1.60
2011,09,26,03,00,3.20
2011,09,26,03,01,4.80
2011,09,26,03,02,1.60
2011,09,26,03,03,3.20
2011,09,26,03,04,3.20
2011,09,26,03,05,1.60
2011,09,26,03,06,1.60
2011,09,26,03,08,1.60
2011,09,26,03,10,1.60
2011,09,26,03,11,11.30
2011,09,26,03,12,6.40
2011,09,26,03,13,4.80
2011,09,26,03,14,8.10
2011,09,26,03,15,8.10
2011,09,26,03,16,4.80
2011,09,26,03,17,3.20
2011,09,26,03,18,3.20
2011,09,26,03,19,4.80
2011,09,26,03,20,4.80
2011,09,26,03,21,4.80
2011,09,26,03,22,4.80
2011,09,26,03,23,6.40
2011,09,26,03,24,4.80
2011,09,26,03,25,3.20
2011,09,26,03,26,1.60
2011,09,26,03,27,4.80
2011,09,26,03,28,6.40
2011,09,26,03,29,3.20
2011,09,26,03,30,1.60
2011,09,26,03,31,1.60
2011,09,26,03,32,4.80
2011,09,26,03,33,1.60
2011,09,26,03,34,4.80
2011,09,26,03,35,3.20
2011,09,26,03,36,4.80
2011,09,26,03,37,1.60
2011,09,26,03,38,3.20
2011,09,26,03,39,6.40
2011,09,26,03,40,6.40
2011,09,26,03,41,9.60
2011,09,26,03,42,9.60
2011,09,26,03,44,4.80
2011,09,26,03,45,4.80
2011,09,26,03,46,3.20
2011,09,26,03,47,3.20
2011,09,26,03,48,11.30
2011,09,26,03,49,8.10
2011,09,26,03,50,8.10
2011,09,26,03,51,4.80
2011,09,26,03,52,4.80
2011,09,26,03,53,3.20
2011,09,26,03,54,3.20
2011,09,26,03,55,6.40
2011,09,26,03,56,9.60
2011,09,26,03,57,6.40
2011,09,26,03,58,3.20
2011,09,26,03,59,6.40
2011,09,26,04,00,8.10
2011,09,26,04,01,17.70
2011,09,26,04,02,16.10
2011,09,26,04,03,19.30
2011,09,26,04,04,16.10
2011,09,26,04,05,11.30
2011,09,26,04,06,11.30
2011,09,26,04,07,8.10
2011,09,26,04,08,14.50
2011,09,26,04,09,14.50
2011,09,26,04,10,9.60
2011,09,26,04,11,8.10
2011,09,26,04,12,8.10
2011,09,26,04,13,11.30
2011,09,26,04,14,8.10
2011,09,26,04,15,9.60
2011,09,26,04,16,8.10
2011,09,26,04,17,9.60
2011,09,26,04,18,11.30
2011,09,26,04,19,9.60
2011,09,26,04,20,8.10
2011,09,26,04,21,8.10
2011,09,26,04,22,17.70
2011,09,26,04,23,19.30
2011,09,26,04,24,8.10
2011,09,26,04,25,6.40
2011,09,26,04,26,9.60
2011,09,26,04,27,9.60
2011,09,26,04,28,12.90
2011,09,26,04,29,11.30
2011,09,26,04,30,8.10
2011,09,26,04,31,11.30
2011,09,26,04,32,6.40
2011,09,26,04,33,4.80
2011,09,26,04,34,9.60
2011,09,26,04,35,4.80
2011,09,26,04,36,3.20
2011,09,26,04,37,8.10
2011,09,26,04,38,3.20
2011,09,26,04,39,4.80
2011,09,26,04,40,4.80
2011,09,26,04,41,4.80
2011,09,26,04,42,8.10
2011,09,26,04,43,8.10
2011,09,26,04,44,8.10
2011,09,26,04,45,4.80
2011,09,26,04,46,6.40
2011,09,26,04,47,6.40
2011,09,26,04,48,8.10
2011,09,26,04,49,3.20
2011,09,26,04,50,1.60
2011,09,26,04,51,4.80
2011,09,26,04,52,8.10
2011,09,26,04,53,14.50
2011,09,26,04,54,9.60
2011,09,26,04,55,3.20
2011,09,26,04,56,6.40
2011,09,26,04,57,6.40
2011,09,26,04,58,3.20
2011,09,26,04,59,6.40
2011,09,26,05,00,14.50
2011,09,26,05,01,16.10
2011,09,26,05,02,9.60
2011,09,26,05,03,14.50
2011,09,26,05,04,20.90
2011,09,26,05,05,6.40
2011,09,26,05,06,14.50
2011,09,26,05,07,4.80
2011,09,26,05,08,9.60
2011,09,26,05,09,4.80
2011,09,26,05,10,19.30
2011,09,26,05,11,22.50
2011,09,26,05,12,20.90
2011,09,26,05,13,19.30
2011,09,26,05,14,20.90
2011,09,26,05,15,24.20
2011,09,26,05,16,22.50
2011,09,26,05,17,20.90
2011,09,26,05,18,14.50
2011,09,26,05,19,24.20
2011,09,26,05,20,12.90
2011,09,26,05,21,19.30
2011,09,26,05,22,27.40
2011,09,26,05,23,16.10
2011,09,26,05,24,8.10
2011,09,26,05,25,19.30
2011,09,26,05,26,8.10
2011,09,26,05,27,17.70
2011,09,26,05,28,12.90
2011,09,26,05,29,9.60
2011,09,26,05,30,25.70
2011,09,26,05,31,11.30
2011,09,26,05,32,8.10
2011,09,26,05,33,11.30
2011,09,26,05,34,4.80
2011,09,26,05,35,6.40
2011,09,26,05,36,14.50
2011,09,26,05,37,16.10
2011,09,26,05,38,9.60
2011,09,26,05,39,19.30
2011,09,26,05,40,19.30
2011,09,26,05,41,19.30
2011,09,26,05,42,19.30
2011,09,26,05,43,22.50
2011,09,26,05,44,11.30
2011,09,26,05,45,19.30
2011,09,26,05,46,24.20
2011,09,26,05,47,32.20
2011,09,26,05,48,17.70
2011,09,26,05,49,9.60
2011,09,26,05,50,12.90
2011,09,26,05,51,8.10
2011,09,26,05,52,17.70
2011,09,26,05,53,16.10
2011,09,26,05,54,9.60
2011,09,26,05,55,20.90
2011,09,26,05,56,19.30
2011,09,26,05,57,14.50
2011,09,26,05,58,16.10
2011,09,26,05,59,17.70
2011,09,26,06,00,17.70
2011,09,26,06,01,20.90
2011,09,26,06,02,14.50
2011,09,26,06,03,19.30
2011,09,26,06,04,19.30
2011,09,26,06,05,8.10
2011,09,26,06,06,11.30
2011,09,26,06,07,11.30
2011,09,26,06,08,17.70
2011,09,26,06,09,20.90
2011,09,26,06,10,14.50
2011,09,26,06,11,11.30
2011,09,26,06,12,22.50
2011,09,26,06,13,16.10
2011,09,26,06,14,14.50
2011,09,26,06,15,24.20
2011,09,26,06,16,20.90
2011,09,26,06,17,8.10
2011,09,26,06,18,20.90
2011,09,26,06,19,16.10
2011,09,26,06,20,14.50
2011,09,26,06,21,14.50
2011,09,26,06,22,9.60
2011,09,26,06,23,20.90
2011,09,26,06,24,19.30
2011,09,26,06,25,17.70
2011,09,26,06,26,29.00
2011,09,26,06,27,11.30
2011,09,26,06,28,14.50
2011,09,26,06,29,20.90
2011,09,26,06,30,19.30
2011,09,26,06,31,16.10
2011,09,26,06,32,16.10
2011,09,26,06,33,19.30
2011,09,26,06,34,19.30
2011,09,26,06,35,9.60
2011,09,26,06,36,20.90
2011,09,26,06,37,14.50
2011,09,26,06,38,20.90
2011,09,26,06,39,22.50
2011,09,26,06,40,29.00
2011,09,26,06,41,14.50
2011,09,26,06,42,16.10
2011,09,26,06,43,19.30
2011,09,26,06,44,20.90
2011,09,26,06,45,16.10
2011,09,26,06,46,25.70
2011,09,26,06,47,19.30
2011,09,26,06,48,20.90
2011,09,26,06,49,17.70
2011,09,26,06,50,17.70
2011,09,26,06,51,24.20
2011,09,26,06,52,20.90
2011,09,26,06,53,25.70
2011,09,26,06,54,17.70
2011,09,26,06,55,24.20
2011,09,26,06,56,12.90
2011,09,26,06,57,19.30
2011,09,26,06,58,32.20
2011,09,26,06,59,17.70
2011,09,26,07,00,19.30
2011,09,26,07,01,27.40
2011,09,26,07,02,24.20
2011,09,26,07,03,20.90
2011,09,26,07,04,22.50
2011,09,26,07,05,19.30
2011,09,26,07,06,24.20
2011,09,26,07,07,27.40
2011,09,26,07,08,17.70
2011,09,26,07,09,19.30
2011,09,26,07,10,22.50
2011,09,26,07,11,19.30
2011,09,26,07,12,11.30
2011,09,26,07,13,9.60
2011,09,26,07,14,14.50
2011,09,26,07,15,14.50
2011,09,26,07,16,16.10
2011,09,26,07,17,19.30
2011,09,26,07,18,16.10
2011,09,26,07,19,16.10
2011,09,26,07,20,9.60
2011,09,26,07,21,11.30
2011,09,26,07,22,16.10
2011,09,26,07,23,17.70
2011,09,26,07,24,20.90
2011,09,26,07,25,20.90
2011,09,26,07,26,24.20
2011,09,26,07,27,20.90
2011,09,26,07,28,16.10
2011,09,26,07,29,9.60
2011,09,26,07,30,17.70
2011,09,26,07,31,11.30
2011,09,26,07,32,14.50
2011,09,26,07,33,22.50
2011,09,26,07,34,16.10
2011,09,26,07,35,17.70
2011,09,26,07,36,17.70
2011,09,26,07,37,16.10
2011,09,26,07,38,16.10
2011,09,26,07,39,9.60
2011,09,26,07,40,6.40
2011,09,26,07,41,8.10
2011,09,26,07,42,9.60
2011,09,26,07,43,11.30
2011,09,26,07,44,14.50
2011,09,26,07,45,8.10
2011,09,26,07,46,14.50
2011,09,26,07,47,8.10
2011,09,26,07,48,11.30
2011,09,26,07,49,8.10
2011,09,26,07,50,6.40
2011,09,26,07,51,8.10
2011,09,26,07,52,8.10
2011,09,26,07,53,6.40
2011,09,26,07,54,8.10
2011,09,26,07,55,9.60
2011,09,26,07,56,8.10
2011,09,26,07,57,8.10
2011,09,26,07,58,6.40
2011,09,26,07,59,8.10
2011,09,26,08,00,9.60
2011,09,26,08,01,6.40
2011,09,26,08,02,9.60
2011,09,26,08,03,8.10
2011,09,26,08,04,9.60
2011,09,26,08,05,8.10
2011,09,26,08,06,9.60
2011,09,26,08,07,17.70
2011,09,26,08,08,14.50
2011,09,26,08,09,8.10
2011,09,26,08,10,16.10
2011,09,26,08,11,9.60
2011,09,26,08,12,8.10
2011,09,26,08,13,16.10
2011,09,26,08,14,9.60
2011,09,26,08,15,20.90
2011,09,26,08,16,16.10
2011,09,26,08,17,17.70
2011,09,26,08,18,6.40
2011,09,26,08,19,16.10
2011,09,26,08,20,17.70
2011,09,26,08,21,9.60
2011,09,26,08,22,27.40
2011,09,26,08,23,9.60
2011,09,26,08,24,24.20
2011,09,26,08,25,20.90
2011,09,26,08,26,16.10
2011,09,26,08,27,17.70
2011,09,26,08,28,14.50
2011,09,26,08,29,19.30
2011,09,26,08,30,14.50
2011,09,26,08,31,9.60
2011,09,26,08,32,11.30
2011,09,26,08,33,17.70
2011,09,26,08,34,16.10
2011,09,26,08,35,20.90
2011,09,26,08,36,11.30
2011,09,26,08,37,9.60
2011,09,26,08,38,14.50
2011,09,26,08,39,17.70
2011,09,26,08,40,19.30
2011,09,26,08,41,19.30
2011,09,26,08,42,22.50
2011,09,26,08,43,17.70
2011,09,26,08,44,11.30
2011,09,26,08,45,25.70
2011,09,26,08,46,24.20
2011,09,26,08,47,25.70
2011,09,26,08,48,25.70
2011,09,26,08,49,20.90
2011,09,26,08,50,27.40
2011,09,26,08,51,25.70
2011,09,26,08,52,17.70
2011,09,26,08,53,19.30
2011,09,26,08,54,25.70
2011,09,26,08,55,27.40
2011,09,26,08,56,22.50
2011,09,26,08,57,19.30
2011,09,26,08,58,29.00
2011,09,26,08,59,33.80
2011,09,26,09,00,24.20
2011,09,26,09,01,25.70
2011,09,26,09,02,22.50
2011,09,26,09,03,30.60
2011,09,26,09,04,20.90
2011,09,26,09,05,14.50
2011,09,26,09,06,41.80
2011,09,26,09,07,30.60
2011,09,26,09,08,17.70
2011,09,26,09,09,29.00
2011,09,26,09,10,27.40
2011,09,26,09,11,22.50
2011,09,26,09,12,27.40
2011,09,26,09,13,22.50
2011,09,26,09,14,22.50
2011,09,26,09,15,22.50
2011,09,26,09,16,37.00
2011,09,26,09,17,29.00
2011,09,26,09,18,20.90
2011,09,26,09,19,24.20
2011,09,26,09,20,19.30
2011,09,26,09,21,25.70
2011,09,26,09,22,19.30
2011,09,26,09,23,35.40
2011,09,26,09,24,24.20
2011,09,26,09,25,32.20
2011,09,26,09,26,32.20
2011,09,26,09,27,27.40
2011,09,26,09,28,33.80
2011,09,26,09,29,24.20
2011,09,26,09,30,35.40
2011,09,26,09,31,25.70
2011,09,26,09,32,32.20
2011,09,26,09,33,30.60
2011,09,26,09,34,25.70
2011,09,26,09,35,22.50
2011,09,26,09,36,27.40
2011,09,26,09,37,24.20
2011,09,26,09,38,45.10
2011,09,26,09,39,25.70
2011,09,26,09,40,33.80
2011,09,26,09,41,27.40
2011,09,26,09,42,22.50
2011,09,26,09,43,35.40
2011,09,26,09,44,25.70
2011,09,26,09,45,25.70
2011,09,26,09,46,29.00
2011,09,26,09,47,11.30
2011,09,26,09,48,29.00
2011,09,26,09,49,22.50
2011,09,26,09,50,27.40
2011,09,26,09,51,35.40
2011,09,26,09,52,32.20
2011,09,26,09,53,29.00
2011,09,26,09,54,30.60
2011,09,26,09,55,29.00
2011,09,26,09,56,41.80
2011,09,26,09,57,30.60
2011,09,26,09,58,17.70
2011,09,26,09,59,25.70
2011,09,26,10,00,27.40
2011,09,26,10,01,30.60
2011,09,26,10,02,22.50
2011,09,26,10,03,33.80
2011,09,26,10,04,24.20
2011,09,26,10,05,33.80
2011,09,26,10,06,22.50
2011,09,26,10,07,33.80
2011,09,26,10,08,43.50
2011,09,26,10,09,27.40
2011,09,26,10,10,40.20
2011,09,26,10,11,40.20
2011,09,26,10,12,17.70
2011,09,26,10,13,24.20
2011,09,26,10,14,25.70
2011,09,26,10,15,30.60
2011,09,26,10,16,38.60
2011,09,26,10,17,25.70
2011,09,26,10,18,29.00
2011,09,26,10,19,30.60
2011,09,26,10,20,38.60
2011,09,26,10,21,29.00
2011,09,26,10,22,29.00
2011,09,26,10,23,33.80
2011,09,26,10,24,33.80
2011,09,26,10,25,53.10
2011,09,26,10,26,35.40
2011,09,26,10,27,41.80
2011,09,26,10,28,43.50
2011,09,26,10,29,32.20
2011,09,26,10,30,51.50
2011,09,26,10,31,35.40
2011,09,26,10,32,30.60
2011,09,26,10,33,41.80
2011,09,26,10,34,32.20
2011,09,26,10,35,41.80
2011,09,26,10,36,25.70
2011,09,26,10,37,29.00
2011,09,26,10,38,29.00
2011,09,26,10,39,37.00
2011,09,26,10,40,24.20
2011,09,26,10,41,22.50
2011,09,26,10,42,16.10
2011,09,26,10,43,43.50
2011,09,26,10,44,30.60
2011,09,26,10,45,40.20
2011,09,26,10,46,37.00
2011,09,26,10,47,33.80
2011,09,26,10,48,25.70
2011,09,26,10,49,37.00
2011,09,26,10,50,27.40
2011,09,26,10,51,27.40
2011,09,26,10,52,35.40
2011,09,26,10,53,19.30
2011,09,26,10,54,29.00
2011,09,26,10,55,40.20
2011,09,26,10,56,27.40
2011,09,26,10,57,38.60
2011,09,26,10,58,37.00
2011,09,26,10,59,25.70
2011,09,26,11,00,33.80
2011,09,26,11,01,30.60
2011,09,26,11,02,33.80
2011,09,26,11,03,40.20
2011,09,26,11,04,22.50
2011,09,26,11,05,33.80
2011,09,26,11,06,29.00
2011,09,26,11,07,32.20
2011,09,26,11,08,27.40
2011,09,26,11,09,35.40
2011,09,26,11,10,37.00
2011,09,26,11,11,22.50
2011,09,26,11,12,41.80
2011,09,26,11,13,33.80
2011,09,26,11,14,19.30
2011,09,26,11,15,32.20
2011,09,26,11,16,33.80
2011,09,26,11,17,30.60
2011,09,26,11,18,29.00
2011,09,26,11,19,22.50
2011,09,26,11,20,43.50
2011,09,26,11,21,16.10
2011,09,26,11,22,32.20
2011,09,26,11,23,38.60
2011,09,26,11,24,29.00
2011,09,26,11,25,48.30
2011,09,26,11,26,32.20
2011,09,26,11,27,38.60
2011,09,26,11,28,38.60
2011,09,26,11,29,27.40
2011,09,26,11,30,35.40
2011,09,26,11,31,29.00
2011,09,26,11,32,32.20
2011,09,26,11,33,37.00
2011,09,26,11,34,25.70
2011,09,26,11,35,27.40
2011,09,26,11,36,35.40
2011,09,26,11,37,27.40
2011,09,26,11,38,24.20
2011,09,26,11,39,35.40
2011,09,26,11,40,38.60
2011,09,26,11,41,38.60
2011,09,26,11,42,30.60
2011,09,26,11,43,24.20
2011,09,26,11,44,24.20
2011,09,26,11,45,38.60
2011,09,26,11,46,38.60
2011,09,26,11,47,37.00
2011,09,26,11,48,22.50
2011,09,26,11,49,40.20
2011,09,26,11,50,22.50
2011,09,26,11,51,24.20
2011,09,26,11,52,29.00
2011,09,26,11,53,27.40
2011,09,26,11,54,35.40
2011,09,26,11,55,29.00
2011,09,26,11,56,40.20
2011,09,26,11,57,32.20
2011,09,26,11,58,24.20
2011,09,26,11,59,32.20
2011,09,26,12,00,25.70
2011,09,26,12,01,25.70
2011,09,26,12,02,32.20
2011,09,26,12,03,35.40
2011,09,26,12,04,32.20
2011,09,26,12,05,25.70
2011,09,26,12,06,20.90
2011,09,26,12,07,30.60
2011,09,26,12,08,40.20
2011,09,26,12,09,29.00
2011,09,26,12,10,20.90
2011,09,26,12,11,20.90
2011,09,26,12,12,38.60
2011,09,26,12,13,29.00
2011,09,26,12,14,19.30
2011,09,26,12,15,38.60
2011,09,26,12,16,24.20
2011,09,26,12,17,22.50
2011,09,26,12,18,41.80
2011,09,26,12,19,38.60
2011,09,26,12,20,27.40
2011,09,26,12,21,22.50
2011,09,26,12,22,33.80
2011,09,26,12,23,30.60
2011,09,26,12,24,25.70
2011,09,26,12,25,29.00
2011,09,26,12,26,24.20
2011,09,26,12,27,30.60
2011,09,26,12,28,16.10
2011,09,26,12,29,33.80
2011,09,26,12,30,32.20
2011,09,26,12,31,20.90
2011,09,26,12,32,27.40
2011,09,26,12,33,29.00
2011,09,26,12,34,29.00
2011,09,26,12,35,53.10
2011,09,26,12,36,19.30
2011,09,26,12,37,27.40
2011,09,26,12,38,25.70
2011,09,26,12,39,30.60
2011,09,26,12,40,27.40
2011,09,26,12,41,33.80
2011,09,26,12,42,16.10
2011,09,26,12,43,22.50
2011,09,26,12,44,24.20
2011,09,26,12,45,25.70
2011,09,26,12,46,33.80
2011,09,26,12,47,29.00
2011,09,26,12,48,30.60
2011,09,26,12,49,32.20
2011,09,26,12,50,32.20
2011,09,26,12,51,43.50
2011,09,26,12,52,33.80
2011,09,26,12,53,32.20
2011,09,26,12,54,29.00
2011,09,26,12,55,17.70
2011,09,26,12,56,37.00
2011,09,26,12,57,41.80
2011,09,26,12,58,35.40
2011,09,26,12,59,30.60
2011,09,26,13,00,32.20
2011,09,26,13,01,30.60
2011,09,26,13,02,25.70
2011,09,26,13,03,35.40
2011,09,26,13,04,32.20
2011,09,26,13,05,45.10
2011,09,26,13,06,33.80
2011,09,26,13,07,27.40
2011,09,26,13,08,19.30
2011,09,26,13,09,24.20
2011,09,26,13,10,32.20
2011,09,26,13,11,30.60
2011,09,26,13,12,24.20
2011,09,26,13,13,33.80
2011,09,26,13,14,27.40
2011,09,26,13,15,22.50
2011,09,26,13,16,24.20
2011,09,26,13,17,16.10
2011,09,26,13,18,17.70
2011,09,26,13,19,16.10
2011,09,26,13,20,27.40
2011,09,26,13,21,27.40
2011,09,26,13,22,24.20
2011,09,26,13,23,33.80
2011,09,26,13,24,29.00
2011,09,26,13,25,24.20
2011,09,26,13,26,30.60
2011,09,26,13,27,24.20
2011,09,26,13,28,24.20
2011,09,26,13,29,27.40
2011,09,26,13,30,22.50
2011,09,26,13,31,25.70
2011,09,26,13,32,29.00
2011,09,26,13,33,22.50
2011,09,26,13,34,19.30
2011,09,26,13,35,16.10
2011,09,26,13,36,29.00
2011,09,26,13,37,17.70
2011,09,26,13,38,16.10
2011,09,26,13,39,16.10
2011,09,26,13,40,22.50
2011,09,26,13,41,24.20
2011,09,26,13,42,20.90
2011,09,26,13,43,22.50
2011,09,26,13,44,22.50
2011,09,26,13,45,17.70
2011,09,26,13,46,16.10
2011,09,26,13,47,19.30
2011,09,26,13,48,16.10
2011,09,26,13,49,19.30
2011,09,26,13,50,19.30
2011,09,26,13,51,22.50
2011,09,26,13,52,19.30
2011,09,26,13,53,24.20
2011,09,26,13,54,17.70
2011,09,26,13,55,27.40
2011,09,26,13,56,27.40
2011,09,26,13,57,20.90
2011,09,26,13,58,25.70
2011,09,26,13,59,17.70
2011,09,26,14,00,20.90
2011,09,26,14,01,24.20
2011,09,26,14,02,20.90
2011,09,26,14,03,17.70
2011,09,26,14,04,16.10
2011,09,26,14,05,16.10
2011,09,26,14,06,16.10
2011,09,26,14,07,14.50
2011,09,26,14,08,17.70
2011,09,26,14,09,17.70
2011,09,26,14,10,16.10
2011,09,26,14,11,9.60
2011,09,26,14,12,11.30
2011,09,26,14,13,16.10
2011,09,26,14,14,14.50
2011,09,26,14,15,17.70
2011,09,26,14,16,20.90
2011,09,26,14,17,17.70
2011,09,26,14,18,14.50
2011,09,26,14,19,17.70
2011,09,26,14,20,24.20
2011,09,26,14,21,14.50
2011,09,26,14,22,19.30
2011,09,26,14,23,11.30
2011,09,26,14,24,11.30
2011,09,26,14,25,9.60
2011,09,26,14,26,12.90
2011,09,26,14,27,11.30
2011,09,26,14,28,9.60
2011,09,26,14,29,8.10
2011,09,26,14,30,4.80
2011,09,26,14,31,4.80
2011,09,26,14,32,6.40
2011,09,26,14,33,3.20
2011,09,26,14,34,1.60
2011,09,26,14,35,4.80
2011,09,26,14,36,4.80
2011,09,26,14,37,1.60
2011,09,26,14,38,3.20
2011,09,26,14,39,3.20
2011,09,26,14,41,1.60
2011,09,26,14,42,1.60
2011,09,26,14,43,3.20
2011,09,26,14,46,3.20
2011,09,26,14,47,1.60
2011,09,26,14,49,1.60
2011,09,26,14,50,1.60
2011,09,26,14,51,1.60
2011,09,26,14,52,1.60
2011,09,26,14,53,3.20
2011,09,26,14,54,3.20
2011,09,26,14,55,3.20
2011,09,26,14,56,3.20
2011,09,26,14,57,3.20
2011,09,26,14,58,3.20
2011,09,26,14,59,1.60
2011,09,26,15,00,1.60
2011,09,26,15,01,3.20
2011,09,26,15,02,6.40
2011,09,26,15,03,3.20
2011,09,26,15,04,4.80
2011,09,26,15,05,4.80
2011,09,26,15,06,4.80
2011,09,26,15,07,3.20
2011,09,26,15,08,4.80
2011,09,26,15,11,1.60
2011,09,26,15,12,1.60
2011,09,26,15,14,3.20
2011,09,26,15,15,1.60
2011,09,26,15,16,6.40
2011,09,26,15,17,6.40
2011,09,26,15,21,1.60
2011,09,26,15,22,4.80
2011,09,26,15,23,1.60
2011,09,26,15,24,1.60
2011,09,26,15,25,1.60
2011,09,26,15,26,1.60
2011,09,26,15,33,1.60
2011,09,26,15,34,1.60
2011,09,26,15,40,1.60
2011,09,26,15,41,1.60
2011,09,26,15,42,1.60
2011,09,26,15,43,1.60
2011,09,26,15,44,3.20
2011,09,26,15,45,1.60
2011,09,26,15,56,1.60
2011,09,26,16,01,1.60
2011,09,26,16,02,1.60
2011,09,26,16,03,1.60
2011,09,26,16,10,1.60
2011,09,26,16,11,1.60
2011,09,26,16,12,1.60
2011,09,26,16,13,1.60
2011,09,26,16,14,1.60
2011,09,26,16,15,1.60
2011,09,26,16,16,3.20
2011,09,26,16,17,6.40
2011,09,26,16,18,4.80
2011,09,26,16,19,3.20
2011,09,26,16,20,1.60
2011,09,26,16,21,1.60
2011,09,26,16,22,1.60
2011,09,26,16,23,8.10
2011,09,26,16,24,4.80
2011,09,26,16,25,4.80
2011,09,26,16,26,8.10
2011,09,26,16,27,6.40
2011,09,26,16,28,1.60
2011,09,26,16,29,4.80
2011,09,26,16,30,1.60
2011,09,26,16,31,1.60
2011,09,26,16,32,1.60
2011,09,26,16,33,1.60
2011,09,26,16,34,1.60
2011,09,26,16,35,4.80
2011,09,26,16,36,1.60
2011,09,26,16,37,6.40
2011,09,26,16,38,3.20
2011,09,26,16,39,1.60
2011,09,26,16,40,1.60
2011,09,26,16,43,1.60
2011,09,26,16,44,3.20
2011,09,26,16,46,1.60
2011,09,26,16,47,3.20
2011,09,26,16,48,1.60
2011,09,26,16,49,1.60
2011,09,26,16,54,1.60
2011,09,26,16,55,3.20
2011,09,26,16,56,1.60
2011,09,26,16,57,1.60
2011,09,26,16,58,1.60
2011,09,26,17,00,1.60
2011,09,26,17,02,1.60
2011,09,26,17,03,3.20
2011,09,26,17,04,3.20
2011,09,26,17,05,1.60
2011,09,26,17,06,4.80
2011,09,26,17,07,3.20
2011,09,26,17,08,3.20
2011,09,26,17,09,4.80
2011,09,26,17,10,1.60
2011,09,26,17,11,3.20
2011,09,26,17,12,1.60
2011,09,26,17,13,1.60
2011,09,26,17,14,1.60
2011,09,26,17,15,4.80
2011,09,26,17,16,4.80
2011,09,26,17,17,1.60
2011,09,26,17,18,6.40
2011,09,26,17,19,8.10
2011,09,26,17,20,9.60
2011,09,26,17,21,8.10
2011,09,26,17,22,6.40
2011,09,26,17,23,3.20
2011,09,26,17,24,3.20
2011,09,26,17,25,4.80
2011,09,26,17,26,4.80
2011,09,26,17,27,3.20
2011,09,26,17,28,9.60
2011,09,26,17,29,6.40
2011,09,26,17,30,4.80
2011,09,26,17,31,6.40
2011,09,26,17,32,6.40
2011,09,26,17,33,16.10
2011,09,26,17,34,17.70
2011,09,26,17,35,9.60
2011,09,26,17,36,9.60
2011,09,26,17,37,17.70
2011,09,26,17,38,9.60
2011,09,26,17,39,14.50
2011,09,26,17,40,11.30
2011,09,26,17,41,14.50
2011,09,26,17,42,16.10
2011,09,26,17,43,12.90
2011,09,26,17,44,6.40
2011,09,26,17,45,9.60
2011,09,26,17,46,9.60
2011,09,26,17,47,8.10
2011,09,26,17,48,6.40
2011,09,26,17,49,6.40
2011,09,26,17,50,6.40
2011,09,26,17,51,16.10
2011,09,26,17,52,6.40
2011,09,26,17,53,6.40
2011,09,26,17,54,6.40
2011,09,26,17,55,6.40
2011,09,26,17,58,3.20
2011,09,26,17,59,4.80
2011,09,26,18,00,1.60
2011,09,26,18,01,3.20
2011,09,26,18,02,4.80
2011,09,26,18,03,3.20
2011,09,26,18,04,3.20
2011,09,26,18,05,4.80
2011,09,26,18,11,1.60
2011,09,26,18,12,3.20
2011,09,26,18,13,3.20
2011,09,26,18,14,4.80
2011,09,26,18,15,3.20
2011,09,26,18,20,1.60
2011,09,26,18,21,1.60
2011,09,26,18,22,1.60
2011,09,26,18,24,1.60
2011,09,26,18,25,1.60
2011,09,26,18,26,1.60
2011,09,26,18,28,4.80
2011,09,26,18,29,6.40
2011,09,26,18,30,3.20
2011,09,26,18,31,3.20
2011,09,26,18,34,6.40
2011,09,26,18,35,8.10
2011,09,26,18,36,6.40
2011,09,26,18,37,1.60
2011,09,26,18,39,4.80
2011,09,26,18,40,6.40
2011,09,26,18,41,4.80
2011,09,26,18,42,3.20
2011,09,26,18,43,4.80
2011,09,26,18,44,3.20
2011,09,26,18,47,1.60
2011,09,26,18,51,1.60
2011,09,26,18,57,1.60
2011,09,26,19,00,1.60
2011,09,26,19,01,4.80
2011,09,26,19,02,1.60
2011,09,26,19,08,3.20
2011,09,26,19,09,3.20
2011,09,26,19,10,3.20
2011,09,26,19,11,4.80
2011,09,26,19,12,1.60
2011,09,26,19,13,1.60
2011,09,26,19,15,3.20
2011,09,26,19,21,1.60
2011,09,26,19,22,3.20
2011,09,26,19,23,3.20
2011,09,26,19,24,1.60
2011,09,26,19,25,1.60
2011,09,26,19,28,1.60
2011,09,26,19,30,1.60
2011,09,26,19,31,3.20
2011,09,26,19,32,4.80
2011,09,26,19,33,1.60
2011,09,26,19,38,1.60
2011,09,26,19,40,1.60
2011,09,26,19,42,1.60
2011,09,26,19,43,1.60
2011,09,26,19,49,3.20
2011,09,26,19,50,3.20
2011,09,26,19,57,1.60
2011,09,26,19,59,1.60
2011,09,26,20,00,3.20
2011,09,26,20,01,4.80
2011,09,26,20,02,3.20
2011,09,26,20,03,3.20
2011,09,26,20,04,3.20
2011,09,26,20,05,1.60
2011,09,26,20,06,3.20
2011,09,26,20,07,1.60
2011,09,26,20,08,1.60
2011,09,26,20,09,1.60
2011,09,26,20,11,1.60
2011,09,26,20,13,4.80
2011,09,26,20,14,1.60
2011,09,26,20,15,1.60
2011,09,26,20,16,3.20
2011,09,26,20,17,1.60
2011,09,26,20,35,1.60
2011,09,26,20,36,4.80
2011,09,26,20,37,4.80
2011,09,26,20,38,6.40
2011,09,26,20,39,8.10
2011,09,26,20,40,8.10
2011,09,26,20,41,4.80
2011,09,26,20,43,1.60
2011,09,26,20,45,1.60
2011,09,26,20,46,4.80
2011,09,26,20,47,3.20
2011,09,26,20,48,1.60
2011,09,26,20,49,1.60
2011,09,26,20,50,1.60
2011,09,26,20,53,1.60
2011,09,26,20,54,1.60
2011,09,26,20,59,4.80
2011,09,26,21,00,4.80
2011,09,26,21,01,8.10
2011,09,26,21,02,8.10
2011,09,26,21,03,3.20
2011,09,26,21,04,4.80
2011,09,26,21,05,1.60
2011,09,26,21,06,1.60
2011,09,26,21,07,1.60
2011,09,26,21,08,4.80
2011,09,26,21,09,4.80
2011,09,26,21,10,8.10
2011,09,26,21,11,8.10
2011,09,26,21,12,4.80
2011,09,26,21,13,4.80
2011,09,26,21,14,8.10
2011,09,26,21,15,6.40
2011,09,26,21,16,6.40
2011,09,26,21,17,6.40
2011,09,26,21,18,9.60
2011,09,26,21,19,8.10
2011,09,26,21,20,8.10
2011,09,26,21,21,8.10
2011,09,26,21,22,8.10
2011,09,26,21,23,6.40
2011,09,26,21,24,6.40
2011,09,26,21,25,4.80
2011,09,26,21,26,4.80
2011,09,26,21,27,3.20
2011,09,26,21,29,3.20
2011,09,26,21,30,3.20
2011,09,26,21,31,3.20
2011,09,26,21,33,4.80
2011,09,26,21,34,3.20
2011,09,26,21,35,4.80
2011,09,26,21,36,4.80
2011,09,26,21,37,3.20
2011,09,26,21,38,1.60
2011,09,26,21,39,1.60
2011,09,26,21,40,3.20
2011,09,26,21,42,3.20
2011,09,26,21,43,1.60
2011,09,26,21,45,1.60
2011,09,26,21,47,1.60